Regional Weather Roundup
Issued by NWS Kansas City/Pleasant Hill, MO

Home | Current Version | Previous Version | Text Only | Print | Product List | Glossary On
Versions: 1 2 3 4 5 6 7 8 9 10 11 12 13 14 15 16 17 18 19 20 21 22 23 24 25 26 27 28 29 30 31 32 33 34 35 36 37 38 39 40 41 42 43 44 45 46 47 48 49 50
000
ASUS43 KEAX 272210
RWREAX

WEATHER ROUNDUP FOR EASTERN KANSAS AND NORTHWEST MISSOURI
NATIONAL WEATHER SERVICE KANSAS CITY/PLEASANT HILL MO
500 PM CDT FRI MAY 27 2016

KSZ040-057-103>105-MOZ028-029-037-043-272300-
...KANSAS CITY METROPOLITAN AREA...

CITY           SKY/WX    TMP DP  RH WIND       PRES   REMARKS
K.C. INTL      CLOUDY    70  68  93 E5        29.72F
K.C. DOWNTOWN  CLOUDY    73  67  81 N3        29.71F
LEES SUMMIT    CLOUDY    77  67  71 S12       29.72F
OLATHE - IXD   PTSUNNY   74  66  76 S13       29.71F
OLATHE - OJC   CLOUDY    75  65  70 S12       29.71F
LAWRENCE       CLOUDY    74  68  81 SE8       29.69F

$$

MOZ001>008-011>017-020>025-030>033-038>040-044>046-053-054-272300-
...NORTHERN AND CENTRAL MISSOURI...

CITY           SKY/WX    TMP DP  RH WIND       PRES   REMARKS
ST. JOSEPH     CLOUDY    75  63  66 SE9       29.71F
MOSBY          CLOUDY    68  63  83 W8        29.73R
WARRENSBURG    MOSUNNY   77  68  73 S7        29.71F
WHITEMAN AFB   CLOUDY    76  69  79 SW9       29.72F
CLINTON        LGT RAIN  75  70  83 S3        29.74F
SEDALIA        CLOUDY    79  67  66 S15       29.75S
WARSAW         NOT AVBL
CHILLICOTHE      N/A     81  68  64 S6        29.72F
KIRKSVILLE     SUNNY     82  66  58 W5        29.73F

$$

MOZ041-047>049-056>058-063>065-088>090-097-272300-
...EASTERN AND SOUTHERN MISSOURI...

CITY           SKY/WX    TMP DP  RH WIND       PRES   REMARKS
ST. LOUIS INTL CLOUDY    78  68  71 S15G23    29.81F
SPIRIT OF STL  CLOUDY    76  70  82 SE6       29.78F
COLUMBIA       MOSUNNY   80  68  66 S7        29.74F
JEFFERSON CITY TSTM      78  70  76 SE10      29.72F
ROLLA          TSTM      70  64  81 SE7       29.77S
SPRINGFIELD    LGT RAIN  72  65  78 SE8       29.75F
BRANSON        CLOUDY    75  68  78 SE9       29.79F
JOPLIN         CLOUDY    73  67  81 S5        29.73F
WEST PLAINS    CLOUDY    70  65  84 SE13G18   29.83F

$$

IAZ060-094-KSZ022-034>040-054-083-096-NEZ052-066-093-272300-
...KANSAS...SOUTHEAST NEBRASKA AND IOWA...

CITY           SKY/WX    TMP DP  RH WIND       PRES   REMARKS
TOPEKA         CLOUDY    72  67  84 E5        29.68F
MANHATTAN      CLOUDY    75  65  70 SE7       29.65F
EMPORIA        CLOUDY    73  66  78 SE13      29.66F
CHANUTE        PTSUNNY   76  64  66 SE16      29.68F
WICHITA        TSTM      69  65  86 E14       29.67R
OMAHA          PTSUNNY   78  59  51 E5        29.70F
LINCOLN        CLOUDY    75  61  61 E7        29.70F
FALLS CITY     CLOUDY    77  65  66 E8        29.69F
LAMONI         MOSUNNY   76  65  68 VRB6      29.73F
DES MOINES     CLOUDY    76  62  62 W7        29.73F

$$




USA.gov is the U.S. government's official web portal to all federal, state and local government web resources and services.